Tracking 35280 objects as of 7-Sep-2026
HD Live streaming from Space Station
objects crossing your sky now

CZ-3C DEB

Track CZ-3C DEB now!


NORAD ID: 40833
Int'l Code: 2010-057BA
Launch date: October 31, 2010
Source: People's Republic of China (PRC)
Launch site: Xichang Space Center, China (XSC)

Note: This is SATELLITE DEBRIS
Your satellite tracking list
Your tracking list is empty




NASA's NSSDC Master Catalog

Two Line Element Set (TLE):
1 40833U 10057BA  15255.47593234  .00000055  00000-0  33862-2 0  9990
2 40833  20.7241  35.7669 7219631 195.4573 117.8278  2.18192009  3813
Source of the keplerian elements: AFSPC